Michigan City, IN

8:42 AM CDT on July 24, 2016 (GMT -0500)
Michigan City Municipal

Weather History for KMGC - January, 2014

Change the Weather History Date:

Monday, January 6, 2014

  Actual Average (KVPZ) Record (KVPZ)
Temperature  
Mean Temperature -2 °F 24 °F  
Max Temperature 8 °F 31 °F 59 °F (2008)
Min Temperature -13 °F 17 °F -16 °F (2014)
Degree Days  
Heating Degree Days 68 41  
Month to date heating degree days 246  
Since 1 July heating degree days 2648  
Cooling Degree Days 0 0  
Month to date cooling degree days 0  
Year to date cooling degree days 0  
Moisture  
Dew Point -14 °F    
Average Humidity 70    
Maximum Humidity 85    
Minimum Humidity 59    
Precipitation  
Precipitation 0.00 in 0.05 in 0.05 in (2002)
Month to date precipitation 0.33  
Year to date precipitation 0.33  
Sea Level Pressure  
Sea Level Pressure 30.14 in    
Wind  
Wind Speed 16 mph (WSW)    
Max Wind Speed 23 mph    
Max Gust Speed 31 mph    
Visibility 2 miles    
Events Snow    
T = Trace of Precipitation, MM = Missing Value Source: NWS Daily Summary

Daily Weather History Graph

Daily Weather History Graph

Search for Another Location

Airport or City:

Trip Planner

Search our weather history database for the weather conditions in past years. The results will help you decide how hot, cold, wet, or windy it might be!

Date:

Astronomy

Jan. 06, 2014 Rise Set
Actual Time 7:14 AM CST 4:32 PM CST
Civil Twilight 6:43 AM CST 5:03 PM CST
Nautical Twilight 6:08 AM CST 5:38 PM CST
Astronomical Twilight 5:34 AM CST 6:11 PM CST
Moon 10:24 AM CST (1/6) 11:10 PM CST (1/6)
Length of Visible Light 10h 20m
Length of Day
9h 17m
Waxing Crescent, 35% of the Moon is Illuminated
Jan 6
Waxing Crescent
Jan 7
First Quarter
Jan 15
Full
Jan 23
Last Quarter
Jan 30
New

Hourly Weather History & Observations

Time (CST) Temp. Windchill Dew Point Humidity Pressure Visibility Wind Dir Wind Speed Gust Speed Precip Events Conditions
12:15 AM 8.6 °F -10.0 °F 3.2 °F 79% 29.95 in - NW 18.4 mph 27.6 mph N/A   Overcast
12:35 AM 6.8 °F -11.3 °F 1.4 °F 79% 29.95 in - WNW 16.1 mph 28.8 mph N/A   Overcast
12:55 AM 5.0 °F -16.7 °F 1.4 °F 85% 29.97 in 2.0 mi WNW 23.0 mph 29.9 mph N/A Snow Light Snow
1:15 AM 5.0 °F -13.6 °F -0.4 °F 78% 29.98 in 2.5 mi WNW 16.1 mph 25.3 mph N/A Snow Light Snow
1:35 AM 5.0 °F -13.0 °F -0.4 °F 78% 29.98 in 1.5 mi West 15.0 mph 25.3 mph N/A Snow Light Snow
1:55 AM 3.2 °F -16.5 °F -0.4 °F 85% 29.99 in 1.5 mi West 17.3 mph 24.2 mph N/A Snow Light Snow
2:15 AM 3.2 °F -15.9 °F -4.0 °F 72% 30.00 in 1.5 mi West 16.1 mph 28.8 mph N/A Snow Light Snow
2:35 AM 1.4 °F -16.9 °F -4.0 °F 78% 30.01 in 2.5 mi West 13.8 mph 21.9 mph N/A Snow Light Snow
2:55 AM 1.4 °F -18.2 °F -4.0 °F 78% 30.02 in 2.0 mi WNW 16.1 mph 24.2 mph N/A Snow Light Snow
3:15 AM 1.4 °F -18.8 °F -5.8 °F 72% 30.02 in 1.5 mi West 17.3 mph 26.5 mph N/A Snow Light Snow
3:35 AM 1.4 °F -16.9 °F -5.8 °F 72% 30.03 in 2.5 mi West 13.8 mph 23.0 mph N/A Snow Light Snow
3:55 AM -0.4 °F -20.5 °F -7.6 °F 72% 30.03 in 1.5 mi West 16.1 mph 26.5 mph N/A Snow Light Snow
4:15 AM -0.4 °F -19.9 °F -7.6 °F 72% 30.04 in 1.5 mi West 15.0 mph 24.2 mph N/A Snow Light Snow
4:35 AM -0.4 °F -19.9 °F -7.6 °F 72% 30.04 in 2.0 mi WNW 15.0 mph 21.9 mph N/A Snow Light Snow
4:55 AM -2.2 °F -22.2 °F -9.4 °F 71% 30.05 in 1.2 mi West 15.0 mph 24.2 mph N/A Snow Light Snow
5:15 AM -4.0 °F -27.6 °F -9.4 °F 78% 30.06 in 1.2 mi West 20.7 mph 28.8 mph N/A Snow Light Snow
5:35 AM -4.0 °F -25.8 °F -9.4 °F 78% 30.06 in 1.0 mi West 17.3 mph 26.5 mph N/A Snow Light Snow
5:55 AM -5.8 °F -29.4 °F -11.2 °F 77% 30.07 in 1.5 mi West 19.6 mph 24.2 mph N/A Snow Light Snow
6:15 AM -5.8 °F -28.2 °F -11.2 °F 77% 30.08 in 1.2 mi West 17.3 mph 23.0 mph N/A Snow Light Snow
6:35 AM -5.8 °F -27.5 °F -13.0 °F 71% 30.09 in 1.5 mi West 16.1 mph 26.5 mph N/A Snow Light Snow
6:55 AM -5.8 °F -27.5 °F -13.0 °F 71% 30.10 in 1.5 mi West 16.1 mph 27.6 mph N/A Snow Light Snow
7:15 AM -7.6 °F -27.5 °F -14.8 °F 71% 30.11 in 1.0 mi West 12.7 mph 25.3 mph N/A   Haze
7:35 AM -7.6 °F -27.5 °F -14.8 °F 71% 30.12 in 0.5 mi West 12.7 mph 28.8 mph N/A   Haze
7:55 AM -7.6 °F -30.5 °F -16.6 °F 65% 30.12 in 0.8 mi West 17.3 mph 26.5 mph N/A Snow Light Snow
8:15 AM -7.6 °F -28.3 °F -14.8 °F 71% 30.13 in 0.8 mi West 13.8 mph 24.2 mph N/A   Haze
8:35 AM -7.6 °F -29.1 °F -14.8 °F 71% 30.14 in 0.8 mi West 15.0 mph 26.5 mph N/A   Haze
8:55 AM -9.4 °F -31.4 °F -16.6 °F 71% 30.15 in 0.8 mi West 15.0 mph 28.8 mph N/A   Haze
9:15 AM -9.4 °F -31.4 °F -16.6 °F 71% 30.16 in 1.2 mi WSW 15.0 mph 21.9 mph N/A   Haze
9:35 AM -9.4 °F -30.6 °F -16.6 °F 71% 30.16 in 0.8 mi WSW 13.8 mph 25.3 mph N/A   Haze
9:55 AM -9.4 °F -27.9 °F -16.6 °F 71% 30.17 in 0.8 mi WSW 10.4 mph 20.7 mph N/A   Haze
10:15 AM -9.4 °F -31.4 °F -18.4 °F 65% 30.17 in 0.8 mi WSW 15.0 mph - N/A   Haze
10:35 AM -9.4 °F -32.1 °F -18.4 °F 65% 30.16 in 0.8 mi WSW 16.1 mph 20.7 mph N/A   Haze
10:55 AM -9.4 °F -32.8 °F -18.4 °F 65% 30.15 in 1.0 mi WSW 17.3 mph 20.7 mph N/A   Haze
11:15 AM -9.4 °F -31.4 °F -18.4 °F 65% 30.15 in 1.5 mi WSW 15.0 mph 19.6 mph N/A   Haze
11:35 AM -9.4 °F -33.5 °F -18.4 °F 65% 30.15 in 1.5 mi WSW 18.4 mph 24.2 mph N/A   Haze
11:55 AM -9.4 °F -30.6 °F -18.4 °F 65% 30.15 in 2.0 mi WSW 13.8 mph 23.0 mph N/A   Haze
12:15 PM -9.4 °F -29.8 °F -20.2 °F 59% 30.15 in 2.5 mi SW 12.7 mph 20.7 mph N/A   Haze
12:35 PM -9.4 °F -31.4 °F -18.4 °F 65% 30.15 in 1.8 mi WSW 15.0 mph 24.2 mph N/A   Haze
12:55 PM -9.4 °F -32.8 °F -20.2 °F 59% 30.16 in 1.5 mi West 17.3 mph 31.1 mph N/A   Haze
1:15 PM -9.4 °F -29.8 °F -20.2 °F 59% 30.15 in 1.5 mi WSW 12.7 mph 25.3 mph N/A   Haze
1:35 PM -9.4 °F -28.9 °F -18.4 °F 65% 30.16 in 1.2 mi West 11.5 mph 23.0 mph N/A   Haze
1:55 PM -9.4 °F -29.8 °F -18.4 °F 65% 30.16 in 1.0 mi WSW 12.7 mph 23.0 mph N/A   Haze
2:15 PM -9.4 °F -29.8 °F -18.4 °F 65% 30.17 in 1.5 mi WSW 12.7 mph 20.7 mph N/A   Haze
2:35 PM -9.4 °F -32.8 °F -18.4 °F 65% 30.17 in 1.8 mi WSW 17.3 mph 21.9 mph N/A   Haze
2:55 PM -9.4 °F -32.1 °F -20.2 °F 59% 30.18 in 3.0 mi SW 16.1 mph 19.6 mph N/A   Haze
3:15 PM -9.4 °F -30.6 °F -20.2 °F 59% 30.19 in 3.0 mi SW 13.8 mph 21.9 mph N/A   Haze
3:35 PM -11.2 °F -32.9 °F -20.2 °F 64% 30.20 in 2.5 mi WSW 13.8 mph 21.9 mph N/A   Haze
3:55 PM -11.2 °F -35.8 °F -22.0 °F 59% 30.20 in 3.0 mi WSW 18.4 mph 23.0 mph N/A   Haze
4:15 PM -13.0 °F -36.0 °F -22.0 °F 64% 30.20 in 4.0 mi WSW 15.0 mph - N/A   Haze
4:35 PM -13.0 °F -35.2 °F -22.0 °F 64% 30.20 in 2.5 mi SW 13.8 mph 25.3 mph N/A   Haze
4:55 PM -13.0 °F -37.5 °F -22.0 °F 64% 30.21 in 4.0 mi WSW 17.3 mph 24.2 mph N/A   Haze
5:15 PM -13.0 °F -35.2 °F -20.2 °F 70% 30.21 in 3.0 mi WSW 13.8 mph 19.6 mph N/A   Haze
5:35 PM -13.0 °F -36.8 °F -20.2 °F 70% 30.21 in 2.5 mi WSW 16.1 mph 21.9 mph N/A   Haze
5:55 PM -11.2 °F -34.4 °F -18.4 °F 70% 30.22 in 2.5 mi WSW 16.1 mph 20.7 mph N/A   Haze
6:15 PM -11.2 °F -34.4 °F -18.4 °F 70% 30.22 in 2.0 mi WSW 16.1 mph 20.7 mph N/A   Haze
6:35 PM -11.2 °F -32.1 °F -18.4 °F 70% 30.22 in 2.0 mi WSW 12.7 mph - N/A   Haze
6:55 PM -9.4 °F -28.9 °F -18.4 °F 65% 30.23 in 1.8 mi WSW 11.5 mph 17.3 mph N/A   Haze
7:15 PM -9.4 °F -29.8 °F -16.6 °F 71% 30.23 in 1.8 mi SW 12.7 mph 19.6 mph N/A   Haze
7:35 PM -9.4 °F -28.9 °F -16.6 °F 71% 30.23 in 1.8 mi WSW 11.5 mph 18.4 mph N/A   Haze
7:55 PM -9.4 °F -30.6 °F -16.6 °F 71% 30.23 in 1.8 mi WSW 13.8 mph 26.5 mph N/A   Haze
8:15 PM -7.6 °F -26.6 °F -14.8 °F 71% 30.23 in 1.8 mi WSW 11.5 mph 23.0 mph N/A   Haze
8:35 PM -7.6 °F -29.1 °F -14.8 °F 71% 30.23 in 1.8 mi West 15.0 mph 25.3 mph N/A   Haze
8:55 PM -7.6 °F -29.8 °F -14.8 °F 71% 30.23 in 1.8 mi WSW 16.1 mph 31.1 mph N/A   Haze
9:15 PM -7.6 °F -27.5 °F -14.8 °F 71% 30.23 in 2.0 mi West 12.7 mph 21.9 mph N/A   Haze
9:35 PM -7.6 °F -29.1 °F -14.8 °F 71% 30.22 in 2.0 mi West 15.0 mph 19.6 mph N/A   Haze
9:55 PM -7.6 °F -27.5 °F -14.8 °F 71% 30.22 in 1.8 mi West 12.7 mph 24.2 mph N/A   Haze
10:15 PM -7.6 °F -25.7 °F -14.8 °F 71% 30.21 in 1.8 mi West 10.4 mph 20.7 mph N/A Snow Light Snow
10:35 PM -7.6 °F -25.7 °F -14.8 °F 71% 30.21 in 1.8 mi SW 10.4 mph 25.3 mph N/A Snow Light Snow
10:55 PM -9.4 °F -28.9 °F -14.8 °F 77% 30.22 in 1.8 mi SW 11.5 mph 21.9 mph N/A Snow Light Snow
11:15 PM -9.4 °F -28.9 °F -16.6 °F 71% 30.22 in 1.5 mi SW 11.5 mph - N/A Snow Light Snow
11:35 PM -9.4 °F -27.9 °F -14.8 °F 77% 30.22 in 1.5 mi WSW 10.4 mph - N/A Snow Light Snow
11:55 PM -7.6 °F -24.6 °F -14.8 °F 71% 30.22 in 1.8 mi SW 9.2 mph - N/A   Haze